Location: Unspecified
(17.6330°N, 0.0000°E)
Time: 21:20:25
(UTC+00:00)

N. Korean satellite - Pass Details

Date: 29 October 2020
Orbit: 453 x 503 km, 97.2° (Epoch: 03 December)

Event Time Altitude Azimuth Distance (km) Brightness Sun altitude
Rises 04:38:50 0° 32° (NNE) 2,457 10.5 -19.3°
Reaches altitude 10° 04:41:16 10° 51° (NE) 1,587 9.7 -18.7°
Maximum altitude 04:43:47 19° 98° (E) 1,135 9.4 -18.1°
Drops below altitude 10° 04:46:18 10° 146° (SSE) 1,596 9.8 -17.5°
Sets 04:48:45 0° 164° (SSE) 2,476 10.5 -16.9°
